📊 Raw Sensor Data

Showing records 47201 to 47225 of 85,082 total

ID Distance (ft) Battery V Battery A Int Temp (°F) Int Humid (%) Ext Temp (°F) Solar V RSSI SNR Time Stamp
37894 -- 3.83 0 75 39 69 5.10 -81 8 04/15/2025 01:45 PM
37893 15.3 3.83 0 73 40 69 5.10 -79 7 04/15/2025 01:30 PM
37892 15.4 4.06 0 74 39 69 5.10 -79 7 04/15/2025 01:15 PM
37891 -- 4.09 0 73 40 67 5.10 -80 7 04/15/2025 01:01 PM
37890 15.4 3.83 0 72 40 67 5.10 -79 8 04/15/2025 12:45 PM
37889 -- 3.89 0 72 40 67 5.10 -80 8 04/15/2025 12:30 PM
37888 -- 3.83 0 72 39 68 5.10 -80 9 04/15/2025 12:15 PM
37887 -- 3.83 0 71 39 67 5.10 -80 7 04/15/2025 12:00 PM
37886 -- 3.83 0 69 40 67 5.10 -81 8 04/15/2025 11:45 AM
37885 -- 3.83 0 67 40 63 5.10 -79 8 04/15/2025 11:30 AM
37884 15.4 3.83 0 68 39 65 5.10 -78 8 04/15/2025 11:15 AM
37883 -- 3.89 0 68 39 69 5.10 -78 8 04/15/2025 11:00 AM
37882 -- 3.83 0 65 39 64 5.10 -79 7 04/15/2025 10:45 AM
37881 -- 3.83 0 64 39 63 5.10 -79 8 04/15/2025 10:30 AM
37880 -- 3.83 0 62 39 61 5.10 -78 8 04/15/2025 10:15 AM
37879 -- 3.85 0 61 39 60 5.10 -79 9 04/15/2025 10:00 AM
37878 -- 3.85 9 59 40 59 5.10 -80 8 04/15/2025 09:45 AM
37877 -- 3.84 0 59 40 57 5.10 -78 8 04/15/2025 09:30 AM
37876 -- 3.84 9 58 40 58 5.10 -79 8 04/15/2025 09:15 AM
37875 -- 3.84 0 58 39 57 5.10 -83 7 04/15/2025 09:00 AM
37874 -- 3.85 10 58 39 58 5.10 -78 8 04/15/2025 08:45 AM
37873 -- 3.84 9 57 39 61 5.10 -79 7 04/15/2025 08:31 AM
37872 -- 4.09 7 55 39 56 5.10 -78 8 04/15/2025 08:15 AM
37871 -- 3.93 41 54 39 54 4.50 -80 5 04/15/2025 08:00 AM
37870 -- 3.92 55 52 39 54 4.50 -83 8 04/15/2025 07:45 AM